Showing default

TELKOM 3S, 41944

Orbit data source: Space-Track

TELKOM 3S, 41944 is a payload satellite owned by Telkom (ID) in GEO that was launched on Tue, 14 Feb 2017 UTC via an ARIANE 5ECA launch vehicle from the French Guiana (FRGUI). Payloads include a variety of satellites, spacecraft, and rockets equipped with specific instruments for various scientific and technological missions. These include communications satellites like Starlink; space stations such as the ISS; scientific satellites like the Hubble; Earth observation satellites from companies like Planet Labs, Umbra, and HawkEye 360; GPS; miniature CubeSats for education and research; and military/defense satellites.

Not visible in the next 10 days
TELKOM 3S details
Identifier
41944, 2017-007A
Orbit
GEO
Last TLE update11 hours ago
Origin
Flag of IDTelkom (ID / INDO)
ManufacturerThales Alenia
MissionOperational Commercial Communications
Bus & MotorSPACEBUS 4000B2, S400
Mass3,500 kg wet, ~2,000 kg dry
Launch date (UTC)
2017-02-14 (8 years ago)
Launch vehicle
ARIANE 5ECA
Launch site
French Guiana (FRGUI)
Object type
Payload
Rocket body
Debris
Shape & HBRBox + 2 Pan, 37 m
Radar Cross Section31.794 m², Large (>1 m²)

Expand to show TLE details & history

TLE from 11 hours ago
0 TELKOM 3S
1 41944U 17007A   24341.00813174 -.00000344  00000-0  00000+0 0  9996
2 41944   0.0104  13.9569 0002479 249.0389 293.2335  1.00272806 28619
Epoch: 2024-12-06T00:11Z
Definitive object data (Epoch: 2024-12-06T00:11:42.582Z)
Latitude-0.00874°
Longitude117.97314°
Altitude35,781.658 km
Speed3.075 km/s
True Right ascension13h 04m 43s
True Declination0° 00' 31"
Sunlit
Object was in daylight at TLE epoch
Visualization TLE readout
Latitude0.00271°
Longitude-74.58345°
Altitude35,787.809 km
Speed3.075 km/s
Apparent Right ascension23h 57m 44s
Apparent Declination-5° 04' 12"
Sunlit
Object is in daylight
Visualization observer readout
Local Sidereal Time09:21:54
Azimuth304.424° NW
Elevation-40.6°
Doppler factor1
Orbital elements
Apogee altitude35,797.832 km
Perigee altitude35,776.926 km
Semi-major axis42,165.516 km
Eccentricity0.0002479
Inclination0.0104°
RAAN13.9569°
Arg. of periapsis249.0389°
True anomaly293.20739°
Mean anomaly293.2335°
Eccentric anomaly293.22045°
Mean motion0.25067 °/min
BSTARUnknown
Orbital period1436.14 mins
Loading historical data...
41944 neighbors
Authenticating...
Loading maneuver chart data...
Loading historical data...
Loading historical data...
Loading historical data...
Loading historical data...
Loading historical data...
Loading historical data...
Loading historical data...
Other satellites on launch #7 in the year 2017 (2017-02-14 UTC)

TELKOM 3S Visibility forecast

Observer location: undefined°, undefined

TELKOM 3S is not visible in the next 10 days
Span
Click to sort rows by Start time (UTC) header in descending order
Start Az.
Max El. time (UTC)
Max El. Az.
Max El.
End time (UTC)
End Az.
|